Year,Month,Day,Hour,Minute,Value (Times are PST for temperature in C)
2008,08,27,00,00,10.90
2008,08,27,00,01,10.90
2008,08,27,00,02,10.90
2008,08,27,00,03,10.90
2008,08,27,00,04,10.90
2008,08,27,00,05,10.90
2008,08,27,00,06,10.90
2008,08,27,00,07,10.90
2008,08,27,00,08,10.90
2008,08,27,00,09,10.90
2008,08,27,00,10,10.90
2008,08,27,00,11,10.90
2008,08,27,00,12,11.00
2008,08,27,00,13,11.00
2008,08,27,00,14,11.00
2008,08,27,00,15,11.00
2008,08,27,00,16,11.00
2008,08,27,00,17,11.00
2008,08,27,00,18,11.00
2008,08,27,00,19,11.00
2008,08,27,00,20,11.00
2008,08,27,00,21,11.00
2008,08,27,00,22,11.00
2008,08,27,00,23,11.00
2008,08,27,00,24,11.00
2008,08,27,00,25,10.90
2008,08,27,00,26,10.90
2008,08,27,00,27,10.90
2008,08,27,00,28,10.90
2008,08,27,00,29,10.90
2008,08,27,00,30,10.90
2008,08,27,00,31,10.90
2008,08,27,00,32,10.90
2008,08,27,00,33,10.90
2008,08,27,00,34,10.90
2008,08,27,00,35,10.90
2008,08,27,00,36,10.90
2008,08,27,00,37,10.90
2008,08,27,00,38,10.90
2008,08,27,00,39,10.90
2008,08,27,00,40,10.90
2008,08,27,00,41,10.90
2008,08,27,00,42,10.90
2008,08,27,00,43,10.90
2008,08,27,00,44,10.90
2008,08,27,00,45,10.90
2008,08,27,00,46,10.90
2008,08,27,00,47,10.90
2008,08,27,00,48,10.90
2008,08,27,00,49,10.90
2008,08,27,00,50,11.00
2008,08,27,00,51,11.00
2008,08,27,00,52,11.00
2008,08,27,00,53,11.00
2008,08,27,00,54,11.00
2008,08,27,00,55,11.00
2008,08,27,00,56,11.00
2008,08,27,00,57,11.00
2008,08,27,00,58,11.00
2008,08,27,00,59,11.00
2008,08,27,01,00,11.00
2008,08,27,01,01,11.00
2008,08,27,01,02,11.00
2008,08,27,01,03,11.00
2008,08,27,01,04,11.00
2008,08,27,01,05,11.00
2008,08,27,01,06,11.00
2008,08,27,01,07,11.00
2008,08,27,01,08,11.00
2008,08,27,01,09,11.00
2008,08,27,01,10,11.00
2008,08,27,01,11,11.00
2008,08,27,01,12,11.00
2008,08,27,01,13,11.00
2008,08,27,01,14,11.00
2008,08,27,01,15,10.90
2008,08,27,01,16,10.90
2008,08,27,01,17,10.90
2008,08,27,01,18,11.00
2008,08,27,01,19,11.00
2008,08,27,01,20,11.00
2008,08,27,01,21,11.00
2008,08,27,01,22,10.90
2008,08,27,01,23,11.00
2008,08,27,01,24,10.90
2008,08,27,01,25,11.00
2008,08,27,01,26,11.00
2008,08,27,01,27,11.00
2008,08,27,01,28,11.00
2008,08,27,01,29,11.00
2008,08,27,01,30,11.00
2008,08,27,01,31,11.00
2008,08,27,01,32,11.00
2008,08,27,01,33,11.00
2008,08,27,01,34,11.00
2008,08,27,01,35,11.00
2008,08,27,01,36,11.00
2008,08,27,01,37,11.00
2008,08,27,01,38,11.00
2008,08,27,01,39,11.00
2008,08,27,01,40,11.00
2008,08,27,01,41,11.00
2008,08,27,01,42,11.00
2008,08,27,01,43,11.00
2008,08,27,01,44,11.00
2008,08,27,01,45,10.90
2008,08,27,01,46,11.00
2008,08,27,01,47,10.90
2008,08,27,01,48,10.90
2008,08,27,01,49,10.90
2008,08,27,01,50,10.90
2008,08,27,01,51,10.90
2008,08,27,01,52,10.80
2008,08,27,01,53,10.80
2008,08,27,01,54,10.80
2008,08,27,01,55,10.80
2008,08,27,01,56,10.80
2008,08,27,01,57,10.80
2008,08,27,01,58,10.80
2008,08,27,01,59,10.70
2008,08,27,02,00,10.70
2008,08,27,02,01,10.70
2008,08,27,02,02,10.60
2008,08,27,02,03,10.60
2008,08,27,02,04,10.60
2008,08,27,02,05,10.60
2008,08,27,02,06,10.60
2008,08,27,02,07,10.60
2008,08,27,02,08,10.60
2008,08,27,02,09,10.60
2008,08,27,02,10,10.60
2008,08,27,02,11,10.50
2008,08,27,02,12,10.50
2008,08,27,02,13,10.50
2008,08,27,02,14,10.40
2008,08,27,02,15,10.40
2008,08,27,02,16,10.40
2008,08,27,02,17,10.40
2008,08,27,02,18,10.40
2008,08,27,02,19,10.40
2008,08,27,02,20,10.40
2008,08,27,02,21,10.40
2008,08,27,02,22,10.40
2008,08,27,02,23,10.40
2008,08,27,02,24,10.40
2008,08,27,02,25,10.40
2008,08,27,02,26,10.40
2008,08,27,02,27,10.40
2008,08,27,02,28,10.40
2008,08,27,02,29,10.40
2008,08,27,02,30,10.40
2008,08,27,02,31,10.40
2008,08,27,02,32,10.40
2008,08,27,02,33,10.40
2008,08,27,02,34,10.50
2008,08,27,02,35,10.50
2008,08,27,02,36,10.50
2008,08,27,02,37,10.50
2008,08,27,02,38,10.50
2008,08,27,02,39,10.50
2008,08,27,02,40,10.50
2008,08,27,02,41,10.50
2008,08,27,02,42,10.50
2008,08,27,02,43,10.50
2008,08,27,02,44,10.50
2008,08,27,02,45,10.50
2008,08,27,02,46,10.50
2008,08,27,02,47,10.50
2008,08,27,02,48,10.50
2008,08,27,02,49,10.50
2008,08,27,02,50,10.50
2008,08,27,02,51,10.50
2008,08,27,02,52,10.50
2008,08,27,02,53,10.50
2008,08,27,02,54,10.50
2008,08,27,02,55,10.50
2008,08,27,02,56,10.50
2008,08,27,02,57,10.50
2008,08,27,02,58,10.50
2008,08,27,02,59,10.50
2008,08,27,03,00,10.50
2008,08,27,03,01,10.50
2008,08,27,03,02,10.50
2008,08,27,03,03,10.50
2008,08,27,03,04,10.50
2008,08,27,03,05,10.50
2008,08,27,03,06,10.50
2008,08,27,03,07,10.50
2008,08,27,03,08,10.40
2008,08,27,03,09,10.40
2008,08,27,03,10,10.40
2008,08,27,03,11,10.40
2008,08,27,03,12,10.40
2008,08,27,03,13,10.40
2008,08,27,03,14,10.40
2008,08,27,03,15,10.40
2008,08,27,03,16,10.40
2008,08,27,03,17,10.40
2008,08,27,03,18,10.40
2008,08,27,03,19,10.40
2008,08,27,03,20,10.40
2008,08,27,03,21,10.40
2008,08,27,03,22,10.40
2008,08,27,03,23,10.40
2008,08,27,03,24,10.40
2008,08,27,03,25,10.40
2008,08,27,03,26,10.40
2008,08,27,03,27,10.40
2008,08,27,03,28,10.40
2008,08,27,03,29,10.40
2008,08,27,03,30,10.40
2008,08,27,04,02,10.40
2008,08,27,04,03,10.40
2008,08,27,04,04,10.40
2008,08,27,04,05,10.40
2008,08,27,04,06,10.40
2008,08,27,04,07,10.40
2008,08,27,04,08,10.40
2008,08,27,04,09,10.40
2008,08,27,04,10,10.40
2008,08,27,04,11,10.40
2008,08,27,04,12,10.40
2008,08,27,04,13,10.50
2008,08,27,04,14,10.50
2008,08,27,04,15,10.50
2008,08,27,04,16,10.50
2008,08,27,04,17,10.50
2008,08,27,04,18,10.50
2008,08,27,04,19,10.50
2008,08,27,04,20,10.50
2008,08,27,04,21,10.50
2008,08,27,04,22,10.50
2008,08,27,04,23,10.60
2008,08,27,04,24,10.60
2008,08,27,04,25,10.60
2008,08,27,04,26,10.60
2008,08,27,04,27,10.60
2008,08,27,04,28,10.60
2008,08,27,04,29,10.60
2008,08,27,04,30,10.60
2008,08,27,04,31,10.60
2008,08,27,04,32,10.60
2008,08,27,04,33,10.60
2008,08,27,04,34,10.60
2008,08,27,04,35,10.60
2008,08,27,04,36,10.60
2008,08,27,04,37,10.60
2008,08,27,04,38,10.60
2008,08,27,04,39,10.50
2008,08,27,04,40,10.50
2008,08,27,04,41,10.50
2008,08,27,04,42,10.50
2008,08,27,04,43,10.50
2008,08,27,04,44,10.50
2008,08,27,04,45,10.50
2008,08,27,04,46,10.50
2008,08,27,04,47,10.50
2008,08,27,04,48,10.50
2008,08,27,04,49,10.50
2008,08,27,04,50,10.50
2008,08,27,04,51,10.60
2008,08,27,04,52,10.50
2008,08,27,04,53,10.60
2008,08,27,04,54,10.60
2008,08,27,04,55,10.50
2008,08,27,04,56,10.60
2008,08,27,04,57,10.60
2008,08,27,04,58,10.50
2008,08,27,04,59,10.50
2008,08,27,05,00,10.50
2008,08,27,05,01,10.60
2008,08,27,05,02,10.60
2008,08,27,05,03,10.60
2008,08,27,05,04,10.50
2008,08,27,05,05,10.50
2008,08,27,05,06,10.50
2008,08,27,05,07,10.50
2008,08,27,05,08,10.50
2008,08,27,05,09,10.50
2008,08,27,05,10,10.50
2008,08,27,05,11,10.50
2008,08,27,05,12,10.50
2008,08,27,05,13,10.50
2008,08,27,05,14,10.50
2008,08,27,05,15,10.40
2008,08,27,05,16,10.40
2008,08,27,05,17,10.40
2008,08,27,05,18,10.40
2008,08,27,05,19,10.40
2008,08,27,05,20,10.40
2008,08,27,05,21,10.40
2008,08,27,05,22,10.40
2008,08,27,05,23,10.40
2008,08,27,05,24,10.40
2008,08,27,05,25,10.40
2008,08,27,05,26,10.40
2008,08,27,05,27,10.40
2008,08,27,05,28,10.40
2008,08,27,05,29,10.40
2008,08,27,05,30,10.40
2008,08,27,05,31,10.40
2008,08,27,05,32,10.40
2008,08,27,05,33,10.40
2008,08,27,05,34,10.40
2008,08,27,05,35,10.40
2008,08,27,05,36,10.40
2008,08,27,05,37,10.40
2008,08,27,05,38,10.40
2008,08,27,05,39,10.40
2008,08,27,05,40,10.40
2008,08,27,05,41,10.40
2008,08,27,05,42,10.40
2008,08,27,05,43,10.40
2008,08,27,05,44,10.40
2008,08,27,05,45,10.40
2008,08,27,05,46,10.40
2008,08,27,05,47,10.40
2008,08,27,05,48,10.40
2008,08,27,05,49,10.40
2008,08,27,05,50,10.40
2008,08,27,05,51,10.40
2008,08,27,05,52,10.40
2008,08,27,05,53,10.40
2008,08,27,05,54,10.40
2008,08,27,05,55,10.40
2008,08,27,05,56,10.40
2008,08,27,05,57,10.40
2008,08,27,05,58,10.50
2008,08,27,05,59,10.50
2008,08,27,06,00,10.50
2008,08,27,06,01,10.50
2008,08,27,06,02,10.50
2008,08,27,06,03,10.50
2008,08,27,06,04,10.60
2008,08,27,06,05,10.60
2008,08,27,06,06,10.60
2008,08,27,06,07,10.60
2008,08,27,06,08,10.60
2008,08,27,06,09,10.60
2008,08,27,06,10,10.60
2008,08,27,06,11,10.60
2008,08,27,06,12,10.60
2008,08,27,06,13,10.50
2008,08,27,06,14,10.50
2008,08,27,06,15,10.50
2008,08,27,06,16,10.50
2008,08,27,06,17,10.50
2008,08,27,06,18,10.50
2008,08,27,06,19,10.50
2008,08,27,06,20,10.50
2008,08,27,06,21,10.50
2008,08,27,06,22,10.60
2008,08,27,06,23,10.60
2008,08,27,06,24,10.60
2008,08,27,06,25,10.60
2008,08,27,06,26,10.60
2008,08,27,06,27,10.60
2008,08,27,06,28,10.60
2008,08,27,06,29,10.70
2008,08,27,06,30,10.70
2008,08,27,06,31,10.60
2008,08,27,06,32,10.60
2008,08,27,06,33,10.60
2008,08,27,06,34,10.60
2008,08,27,06,35,10.60
2008,08,27,06,36,10.50
2008,08,27,06,37,10.50
2008,08,27,06,38,10.50
2008,08,27,06,39,10.50
2008,08,27,06,40,10.40
2008,08,27,06,41,10.50
2008,08,27,06,42,10.50
2008,08,27,06,43,10.50
2008,08,27,06,44,10.50
2008,08,27,06,45,10.50
2008,08,27,06,46,10.40
2008,08,27,06,47,10.40
2008,08,27,06,48,10.40
2008,08,27,06,49,10.40
2008,08,27,06,50,10.40
2008,08,27,06,51,10.40
2008,08,27,06,52,10.50
2008,08,27,06,53,10.50
2008,08,27,06,54,10.50
2008,08,27,06,55,10.50
2008,08,27,06,56,10.60
2008,08,27,06,57,10.60
2008,08,27,06,58,10.60
2008,08,27,06,59,10.60
2008,08,27,07,00,10.60
2008,08,27,07,01,10.60
2008,08,27,07,02,10.70
2008,08,27,07,03,10.70
2008,08,27,07,04,10.70
2008,08,27,07,05,10.70
2008,08,27,07,06,10.70
2008,08,27,07,07,10.70
2008,08,27,07,08,10.70
2008,08,27,07,09,10.80
2008,08,27,07,10,10.80
2008,08,27,07,11,10.80
2008,08,27,07,12,10.80
2008,08,27,07,13,10.90
2008,08,27,07,14,10.90
2008,08,27,07,15,10.90
2008,08,27,07,16,10.90
2008,08,27,07,17,11.00
2008,08,27,07,18,11.00
2008,08,27,07,19,11.10
2008,08,27,07,20,11.10
2008,08,27,07,21,11.20
2008,08,27,07,22,11.30
2008,08,27,07,23,11.30
2008,08,27,07,24,11.40
2008,08,27,07,25,11.40
2008,08,27,07,26,11.40
2008,08,27,07,27,11.50
2008,08,27,07,28,11.50
2008,08,27,07,29,11.60
2008,08,27,07,30,11.60
2008,08,27,07,31,11.60
2008,08,27,07,32,11.60
2008,08,27,07,33,11.60
2008,08,27,07,34,11.70
2008,08,27,07,35,11.70
2008,08,27,07,36,11.70
2008,08,27,07,37,11.70
2008,08,27,07,38,11.70
2008,08,27,07,39,11.70
2008,08,27,07,40,11.70
2008,08,27,07,41,11.80
2008,08,27,07,42,11.80
2008,08,27,07,43,11.80
2008,08,27,07,44,11.80
2008,08,27,07,45,11.80
2008,08,27,07,46,11.90
2008,08,27,07,47,11.90
2008,08,27,07,48,11.90
2008,08,27,07,49,11.90
2008,08,27,07,50,11.90
2008,08,27,07,51,12.00
2008,08,27,07,52,12.00
2008,08,27,07,53,12.00
2008,08,27,07,54,12.10
2008,08,27,07,55,12.10
2008,08,27,07,56,12.10
2008,08,27,07,57,12.20
2008,08,27,07,58,12.20
2008,08,27,07,59,12.20
2008,08,27,08,00,12.20
2008,08,27,08,01,12.20
2008,08,27,08,02,12.20
2008,08,27,08,03,12.20
2008,08,27,08,04,12.20
2008,08,27,08,05,12.30
2008,08,27,08,06,12.30
2008,08,27,08,07,12.30
2008,08,27,08,08,12.30
2008,08,27,08,09,12.30
2008,08,27,08,10,12.30
2008,08,27,08,11,12.20
2008,08,27,08,12,12.20
2008,08,27,08,13,12.20
2008,08,27,08,14,12.20
2008,08,27,08,15,12.20
2008,08,27,08,16,12.20
2008,08,27,08,17,12.20
2008,08,27,08,18,12.20
2008,08,27,08,19,12.20
2008,08,27,08,20,12.20
2008,08,27,08,21,12.20
2008,08,27,08,22,12.20
2008,08,27,08,23,12.20
2008,08,27,08,24,12.20
2008,08,27,08,25,12.20
2008,08,27,08,26,12.20
2008,08,27,08,27,12.20
2008,08,27,08,28,12.20
2008,08,27,08,29,12.20
2008,08,27,08,30,12.20
2008,08,27,08,31,12.20
2008,08,27,08,32,12.20
2008,08,27,08,33,12.20
2008,08,27,08,34,12.20
2008,08,27,08,35,12.20
2008,08,27,08,36,12.30
2008,08,27,08,37,12.30
2008,08,27,08,38,12.30
2008,08,27,08,39,12.30
2008,08,27,08,40,12.30
2008,08,27,08,41,12.30
2008,08,27,08,42,12.30
2008,08,27,08,43,12.30
2008,08,27,08,44,12.30
2008,08,27,08,45,12.30
2008,08,27,08,46,12.30
2008,08,27,08,47,12.30
2008,08,27,08,48,12.30
2008,08,27,08,49,12.30
2008,08,27,08,50,12.30
2008,08,27,08,51,12.30
2008,08,27,08,52,12.40
2008,08,27,08,53,12.40
2008,08,27,08,54,12.40
2008,08,27,08,55,12.50
2008,08,27,08,56,12.50
2008,08,27,08,57,12.60
2008,08,27,08,58,12.60
2008,08,27,08,59,12.70
2008,08,27,09,00,12.70
2008,08,27,09,01,12.70
2008,08,27,09,02,12.70
2008,08,27,09,03,12.80
2008,08,27,09,04,12.80
2008,08,27,09,05,12.90
2008,08,27,09,06,12.90
2008,08,27,09,07,13.00
2008,08,27,09,08,13.10
2008,08,27,09,09,13.10
2008,08,27,09,10,13.20
2008,08,27,09,11,13.20
2008,08,27,09,12,13.20
2008,08,27,09,13,13.30
2008,08,27,09,14,13.30
2008,08,27,09,15,13.40
2008,08,27,09,16,13.40
2008,08,27,09,17,13.50
2008,08,27,09,18,13.50
2008,08,27,09,19,13.50
2008,08,27,09,20,13.50
2008,08,27,09,21,13.50
2008,08,27,09,22,13.40
2008,08,27,09,23,13.40
2008,08,27,09,24,13.30
2008,08,27,09,25,13.30
2008,08,27,09,26,13.30
2008,08,27,09,27,13.30
2008,08,27,09,28,13.30
2008,08,27,09,29,13.30
2008,08,27,09,30,13.30
2008,08,27,09,31,13.30
2008,08,27,09,32,13.20
2008,08,27,09,33,13.20
2008,08,27,09,34,13.20
2008,08,27,09,35,13.20
2008,08,27,09,36,13.30
2008,08,27,09,37,13.20
2008,08,27,09,38,13.20
2008,08,27,09,39,13.30
2008,08,27,09,40,13.30
2008,08,27,09,41,13.30
2008,08,27,09,42,13.30
2008,08,27,09,43,13.30
2008,08,27,09,44,13.30
2008,08,27,09,45,13.30
2008,08,27,09,46,13.30
2008,08,27,09,47,13.30
2008,08,27,09,48,13.30
2008,08,27,09,49,13.30
2008,08,27,09,50,13.30
2008,08,27,09,51,13.40
2008,08,27,09,52,13.40
2008,08,27,09,53,13.40
2008,08,27,09,54,13.40
2008,08,27,09,55,13.40
2008,08,27,09,56,13.40
2008,08,27,09,57,13.40
2008,08,27,09,58,13.40
2008,08,27,09,59,13.40
2008,08,27,10,00,13.40
2008,08,27,10,01,13.40
2008,08,27,10,02,13.40
2008,08,27,10,03,13.30
2008,08,27,10,04,13.30
2008,08,27,10,05,13.30
2008,08,27,10,06,13.30
2008,08,27,10,07,13.30
2008,08,27,10,08,13.30
2008,08,27,10,09,13.20
2008,08,27,10,10,13.20
2008,08,27,10,11,13.20
2008,08,27,10,12,13.20
2008,08,27,10,13,13.20
2008,08,27,10,14,13.30
2008,08,27,10,15,13.40
2008,08,27,10,16,13.50
2008,08,27,10,17,13.50
2008,08,27,10,18,13.50
2008,08,27,10,19,13.50
2008,08,27,10,20,13.60
2008,08,27,10,21,13.60
2008,08,27,10,22,13.60
2008,08,27,10,23,13.60
2008,08,27,10,24,13.60
2008,08,27,10,25,13.60
2008,08,27,10,26,13.50
2008,08,27,10,27,13.50
2008,08,27,10,28,13.50
2008,08,27,10,29,13.50
2008,08,27,10,30,13.40
2008,08,27,10,31,13.40
2008,08,27,10,32,13.40
2008,08,27,10,33,13.40
2008,08,27,10,34,13.40
2008,08,27,10,35,13.40
2008,08,27,10,36,13.40
2008,08,27,10,37,13.50
2008,08,27,10,38,13.50
2008,08,27,10,39,13.60
2008,08,27,10,40,13.60
2008,08,27,10,41,13.60
2008,08,27,10,42,13.60
2008,08,27,10,43,13.60
2008,08,27,10,44,13.70
2008,08,27,10,45,13.70
2008,08,27,10,46,13.80
2008,08,27,10,47,13.80
2008,08,27,10,48,13.80
2008,08,27,10,49,13.80
2008,08,27,10,50,13.90
2008,08,27,10,51,13.90
2008,08,27,10,52,13.90
2008,08,27,10,53,14.00
2008,08,27,10,54,14.10
2008,08,27,10,55,14.20
2008,08,27,10,56,14.30
2008,08,27,10,57,14.30
2008,08,27,10,58,14.30
2008,08,27,10,59,14.30
2008,08,27,11,00,14.30
2008,08,27,11,01,14.40
2008,08,27,11,02,14.40
2008,08,27,11,03,14.40
2008,08,27,11,04,14.30
2008,08,27,11,05,14.30
2008,08,27,11,06,14.30
2008,08,27,11,07,14.40
2008,08,27,11,08,14.40
2008,08,27,11,09,14.40
2008,08,27,11,10,14.50
2008,08,27,11,11,14.50
2008,08,27,11,12,14.50
2008,08,27,11,13,14.60
2008,08,27,11,14,14.60
2008,08,27,11,15,14.70
2008,08,27,11,16,14.80
2008,08,27,11,17,15.00
2008,08,27,11,18,15.00
2008,08,27,11,19,15.00
2008,08,27,11,20,15.00
2008,08,27,11,21,15.00
2008,08,27,11,22,15.00
2008,08,27,11,23,15.00
2008,08,27,11,24,15.00
2008,08,27,11,25,15.00
2008,08,27,11,26,15.00
2008,08,27,11,27,15.10
2008,08,27,11,28,15.20
2008,08,27,11,29,15.10
2008,08,27,11,30,15.00
2008,08,27,11,31,15.00
2008,08,27,11,32,15.00
2008,08,27,11,33,15.00
2008,08,27,11,34,14.90
2008,08,27,11,35,14.80
2008,08,27,11,36,14.60
2008,08,27,11,37,14.60
2008,08,27,11,38,14.50
2008,08,27,11,39,14.50
2008,08,27,11,40,14.40
2008,08,27,11,41,14.40
2008,08,27,11,42,14.40
2008,08,27,11,43,14.40
2008,08,27,11,44,14.40
2008,08,27,11,45,14.30
2008,08,27,11,46,14.40
2008,08,27,11,47,14.40
2008,08,27,11,48,14.30
2008,08,27,11,49,14.30
2008,08,27,11,50,14.30
2008,08,27,11,51,14.20
2008,08,27,11,52,14.20
2008,08,27,11,53,14.30
2008,08,27,11,54,14.30
2008,08,27,11,55,14.30
2008,08,27,11,56,14.40
2008,08,27,11,57,14.50
2008,08,27,11,58,14.60
2008,08,27,11,59,14.60
2008,08,27,12,00,14.70
2008,08,27,12,01,14.70
2008,08,27,12,02,14.90
2008,08,27,12,03,15.00
2008,08,27,12,04,15.00
2008,08,27,12,05,15.00
2008,08,27,12,06,15.10
2008,08,27,12,07,15.30
2008,08,27,12,08,15.40
2008,08,27,12,09,15.50
2008,08,27,12,10,15.60
2008,08,27,12,11,15.60
2008,08,27,12,12,15.70
2008,08,27,12,13,15.70
2008,08,27,12,14,15.70
2008,08,27,12,15,15.70
2008,08,27,12,16,15.80
2008,08,27,12,17,15.90
2008,08,27,12,18,15.90
2008,08,27,12,19,15.90
2008,08,27,12,20,15.90
2008,08,27,12,21,15.90
2008,08,27,12,22,15.90
2008,08,27,12,23,15.80
2008,08,27,12,24,15.80
2008,08,27,12,25,15.90
2008,08,27,12,26,16.00
2008,08,27,12,27,16.10
2008,08,27,12,28,16.20
2008,08,27,12,29,16.20
2008,08,27,12,30,16.20
2008,08,27,12,31,16.20
2008,08,27,12,32,16.30
2008,08,27,12,33,16.30
2008,08,27,12,34,16.30
2008,08,27,12,35,16.30
2008,08,27,12,36,16.30
2008,08,27,12,37,16.30
2008,08,27,12,38,16.30
2008,08,27,12,39,16.40
2008,08,27,12,40,16.50
2008,08,27,12,41,16.60
2008,08,27,12,42,16.60
2008,08,27,12,43,16.60
2008,08,27,12,44,16.60
2008,08,27,12,45,16.60
2008,08,27,12,46,16.60
2008,08,27,12,47,16.60
2008,08,27,12,48,16.70
2008,08,27,12,49,16.70
2008,08,27,12,50,16.80
2008,08,27,12,51,16.90
2008,08,27,12,52,16.90
2008,08,27,12,53,16.90
2008,08,27,12,54,17.00
2008,08,27,12,55,17.00
2008,08,27,12,56,17.10
2008,08,27,12,57,17.00
2008,08,27,12,58,16.90
2008,08,27,12,59,16.90
2008,08,27,13,00,16.80
2008,08,27,13,01,16.70
2008,08,27,13,02,16.70
2008,08,27,13,03,16.70
2008,08,27,13,04,16.70
2008,08,27,13,05,16.60
2008,08,27,13,06,16.60
2008,08,27,13,07,16.70
2008,08,27,13,08,16.70
2008,08,27,13,09,16.70
2008,08,27,13,10,16.70
2008,08,27,13,11,16.60
2008,08,27,13,12,16.60
2008,08,27,13,13,16.60
2008,08,27,13,14,16.60
2008,08,27,13,15,16.60
2008,08,27,13,16,16.60
2008,08,27,13,17,16.60
2008,08,27,13,18,16.60
2008,08,27,13,19,16.60
2008,08,27,13,20,16.60
2008,08,27,13,21,16.60
2008,08,27,13,22,16.50
2008,08,27,13,23,16.50
2008,08,27,13,24,16.50
2008,08,27,13,25,16.60
2008,08,27,13,26,16.60
2008,08,27,13,27,16.80
2008,08,27,13,28,16.90
2008,08,27,13,29,17.00
2008,08,27,13,30,17.00
2008,08,27,13,31,17.00
2008,08,27,13,32,16.90
2008,08,27,13,33,17.00
2008,08,27,13,34,17.00
2008,08,27,13,35,17.00
2008,08,27,13,36,17.10
2008,08,27,13,37,17.10
2008,08,27,13,38,17.10
2008,08,27,13,39,17.10
2008,08,27,13,40,17.10
2008,08,27,13,41,17.10
2008,08,27,13,42,17.10
2008,08,27,13,43,17.10
2008,08,27,13,44,17.20
2008,08,27,13,45,17.20
2008,08,27,13,46,17.30
2008,08,27,13,47,17.20
2008,08,27,13,48,17.10
2008,08,27,13,49,17.10
2008,08,27,13,50,17.10
2008,08,27,13,51,17.00
2008,08,27,13,52,17.00
2008,08,27,13,53,17.00
2008,08,27,13,54,16.90
2008,08,27,13,55,17.00
2008,08,27,13,56,17.10
2008,08,27,13,57,17.20
2008,08,27,13,58,17.20
2008,08,27,13,59,17.20
2008,08,27,14,00,17.30
2008,08,27,14,01,17.30
2008,08,27,14,02,17.40
2008,08,27,14,03,17.50
2008,08,27,14,04,17.60
2008,08,27,14,05,17.60
2008,08,27,14,06,17.60
2008,08,27,14,07,17.60
2008,08,27,14,08,17.60
2008,08,27,14,09,17.60
2008,08,27,14,10,17.50
2008,08,27,14,11,17.50
2008,08,27,14,12,17.50
2008,08,27,14,13,17.50
2008,08,27,14,14,17.40
2008,08,27,14,15,17.40
2008,08,27,14,16,17.40
2008,08,27,14,17,17.30
2008,08,27,14,18,17.20
2008,08,27,14,19,17.30
2008,08,27,14,20,17.40
2008,08,27,14,21,17.50
2008,08,27,14,22,17.60
2008,08,27,14,23,17.50
2008,08,27,14,24,17.40
2008,08,27,14,25,17.40
2008,08,27,14,26,17.40
2008,08,27,14,27,17.40
2008,08,27,14,28,17.50
2008,08,27,14,29,17.50
2008,08,27,14,30,17.60
2008,08,27,14,31,17.70
2008,08,27,14,32,17.60
2008,08,27,14,33,17.60
2008,08,27,14,34,17.60
2008,08,27,14,35,17.60
2008,08,27,14,36,17.70
2008,08,27,14,37,17.70
2008,08,27,14,38,17.80
2008,08,27,14,39,17.80
2008,08,27,14,40,17.90
2008,08,27,14,41,17.90
2008,08,27,14,42,17.80
2008,08,27,14,43,17.80
2008,08,27,14,44,17.70
2008,08,27,14,45,17.70
2008,08,27,14,46,17.70
2008,08,27,14,47,17.70
2008,08,27,14,48,17.70
2008,08,27,14,49,17.80
2008,08,27,14,50,17.90
2008,08,27,14,51,17.90
2008,08,27,14,52,17.80
2008,08,27,14,53,17.80
2008,08,27,14,54,17.70
2008,08,27,14,55,17.70
2008,08,27,14,56,17.80
2008,08,27,14,57,17.70
2008,08,27,14,58,17.80
2008,08,27,14,59,17.80
2008,08,27,15,00,17.80
2008,08,27,15,01,17.80
2008,08,27,15,02,17.80
2008,08,27,15,03,17.80
2008,08,27,15,04,17.80
2008,08,27,15,05,17.70
2008,08,27,15,06,17.70
2008,08,27,15,07,17.80
2008,08,27,15,08,17.80
2008,08,27,15,09,17.90
2008,08,27,15,10,17.90
2008,08,27,15,11,18.00
2008,08,27,15,12,17.90
2008,08,27,15,13,17.90
2008,08,27,15,14,17.90
2008,08,27,15,15,18.00
2008,08,27,15,16,18.00
2008,08,27,15,17,18.00
2008,08,27,15,18,18.00
2008,08,27,15,19,18.10
2008,08,27,15,20,18.10
2008,08,27,15,21,18.10
2008,08,27,15,22,18.10
2008,08,27,15,23,18.10
2008,08,27,15,24,18.00
2008,08,27,15,25,18.00
2008,08,27,15,26,18.00
2008,08,27,15,27,18.00
2008,08,27,15,28,18.00
2008,08,27,15,29,18.00
2008,08,27,15,30,18.10
2008,08,27,15,31,18.00
2008,08,27,15,32,18.10
2008,08,27,15,33,18.10
2008,08,27,15,34,18.20
2008,08,27,15,35,18.20
2008,08,27,15,36,18.20
2008,08,27,15,37,18.30
2008,08,27,15,38,18.30
2008,08,27,15,39,18.30
2008,08,27,15,40,18.40
2008,08,27,15,41,18.30
2008,08,27,15,42,18.30
2008,08,27,15,43,18.20
2008,08,27,15,44,18.20
2008,08,27,15,45,18.20
2008,08,27,15,46,18.20
2008,08,27,15,47,18.30
2008,08,27,15,48,18.20
2008,08,27,15,49,18.20
2008,08,27,15,50,18.10
2008,08,27,15,51,18.10
2008,08,27,15,52,18.00
2008,08,27,15,53,17.90
2008,08,27,15,54,17.80
2008,08,27,15,55,17.80
2008,08,27,15,56,17.70
2008,08,27,15,57,17.60
2008,08,27,15,58,17.60
2008,08,27,15,59,17.60
2008,08,27,16,00,17.60
2008,08,27,16,01,17.70
2008,08,27,16,02,17.70
2008,08,27,16,03,17.70
2008,08,27,16,04,17.80
2008,08,27,16,05,17.80
2008,08,27,16,06,17.90
2008,08,27,16,07,18.00
2008,08,27,16,08,18.00
2008,08,27,16,09,18.10
2008,08,27,16,10,18.10
2008,08,27,16,11,18.10
2008,08,27,16,12,18.10
2008,08,27,16,13,18.00
2008,08,27,16,14,18.00
2008,08,27,16,15,17.80
2008,08,27,16,16,17.80
2008,08,27,16,17,17.80
2008,08,27,16,18,17.80
2008,08,27,16,19,17.80
2008,08,27,16,20,17.70
2008,08,27,16,21,17.70
2008,08,27,16,22,17.60
2008,08,27,16,23,17.60
2008,08,27,16,24,17.60
2008,08,27,16,25,17.50
2008,08,27,16,26,17.60
2008,08,27,16,27,17.60
2008,08,27,16,28,17.70
2008,08,27,16,29,17.80
2008,08,27,16,30,17.90
2008,08,27,16,31,18.00
2008,08,27,16,32,18.10
2008,08,27,16,33,18.20
2008,08,27,16,34,18.30
2008,08,27,16,35,18.40
2008,08,27,16,36,18.30
2008,08,27,16,37,18.20
2008,08,27,16,38,18.10
2008,08,27,16,39,18.10
2008,08,27,16,40,18.10
2008,08,27,16,41,18.20
2008,08,27,16,42,18.20
2008,08,27,16,43,18.20
2008,08,27,16,44,18.30
2008,08,27,16,45,18.30
2008,08,27,16,46,18.30
2008,08,27,16,47,18.30
2008,08,27,16,48,18.30
2008,08,27,16,49,18.30
2008,08,27,16,50,18.20
2008,08,27,16,51,18.10
2008,08,27,16,52,18.00
2008,08,27,16,53,18.00
2008,08,27,16,54,17.90
2008,08,27,16,55,17.90
2008,08,27,16,56,17.80
2008,08,27,16,57,17.80
2008,08,27,16,58,17.70
2008,08,27,16,59,17.80
2008,08,27,17,00,17.80
2008,08,27,17,01,17.70
2008,08,27,17,02,17.70
2008,08,27,17,03,17.80
2008,08,27,17,04,17.80
2008,08,27,17,05,17.80
2008,08,27,17,06,17.90
2008,08,27,17,07,17.90
2008,08,27,17,08,18.00
2008,08,27,17,09,18.00
2008,08,27,17,10,18.00
2008,08,27,17,11,18.00
2008,08,27,17,12,18.10
2008,08,27,17,13,18.00
2008,08,27,17,14,18.00
2008,08,27,17,15,17.90
2008,08,27,17,16,17.90
2008,08,27,17,17,17.80
2008,08,27,17,18,17.80
2008,08,27,17,19,17.90
2008,08,27,17,20,17.90
2008,08,27,17,21,17.90
2008,08,27,17,22,18.00
2008,08,27,17,23,18.10
2008,08,27,17,24,18.10
2008,08,27,17,25,18.10
2008,08,27,17,26,18.00
2008,08,27,17,27,17.90
2008,08,27,17,28,17.80
2008,08,27,17,29,17.70
2008,08,27,17,30,17.50
2008,08,27,17,31,17.40
2008,08,27,17,32,17.20
2008,08,27,17,33,17.10
2008,08,27,17,34,17.00
2008,08,27,17,35,17.00
2008,08,27,17,36,16.90
2008,08,27,17,37,16.90
2008,08,27,17,38,16.80
2008,08,27,17,39,16.90
2008,08,27,17,40,16.90
2008,08,27,17,41,17.00
2008,08,27,17,42,17.00
2008,08,27,17,43,17.10
2008,08,27,17,44,17.10
2008,08,27,17,45,17.20
2008,08,27,17,46,17.20
2008,08,27,17,47,17.40
2008,08,27,17,48,17.40
2008,08,27,17,49,17.40
2008,08,27,17,50,17.40